Location: Lugrin
(46.4033°N, 6.6674°E)
Time: 08:13:03
(UTC+00:00)

N. Korean satellite - Pass Details

Date: 30 November 2020
Orbit: 453 x 502 km, 97.2° (Epoch: 16 January)

Event Time Altitude Azimuth Distance (km) Brightness Sun altitude
Rises 06:08:26 0° 357° (N) 2,557 10.0 -8.0°
Reaches altitude 10° 06:10:56 10° 339° (NNW) 1,681 8.9 -7.6°
Maximum altitude 06:13:30 19° 294° (WNW) 1,234 8.0 -7.2°
Drops below altitude 10° 06:16:06 10° 248° (WSW) 1,689 8.9 -6.8°
Sets 06:18:37 0° 230° (SW) 2,574 10.0 -6.4°
